Home   Weather   Yangon   Past weeks

Flag for Myanmar Past Weather in Yangon, Myanmar — Yesterday and Last 2 Weeks

Now
79 °F

Passing clouds.


Feels Like: 83 °F
Forecast: 78 / 97 °F
Wind: 2 mph from Southwest

Location: Rangoon Airport

Current Time: Apr 28, 2017 at 7:14:03 am

Latest Report: Apr 28, 2017 at 6:30 am


Visibility: 4 mi

Pressure: 29.83 "Hg

Humidity: 94%

Dew Point: 77 °F

Location of YangonLocation

Past Weather in Yangon — Graph

°F

Yangon Temperature Yesterday

Maximum temperature yesterday: 97 °F (at 2:30 pm)
Minimum temperature yesterday: 79 °F (at 4:00 am)
Average temperature yesterday: 88 °F

High & Low Weather Summary for the Past Weeks

 TemperatureHumidityPressure
High100 °F (Apr 14, 2:00 pm)100% (Apr 15, 1:00 pm)32.52 "Hg (Apr 15, 1:00 pm)
Low73 °F (Apr 15, 11:30 pm)35% (Apr 14, 2:00 pm)29.65 "Hg (Apr 16, 4:30 pm)
Average86 °F70%29.81 "Hg
* Reported Apr 13 5:30 am — Apr 28 6:00 am, Yangon, Weather by CustomWeather, © 2017

Note: Actual official high and low records may vary slightly from our data, if they occured in-between our weather recording intervals... More about our weather records

Advertising

Yangon Weather History for the Previous 24 Hours

Scroll right to see more
 ConditionsComfort  
Time TempWeatherWind HumidityBarometerVisibility
6:00 am
Fri, Apr 28
79 °FPassing clouds.3 mph94%29.80 "Hg4 mi
5:30 am79 °FPassing clouds.5 mph89%29.80 "Hg4 mi
5:00 am79 °FPassing clouds.6 mph89%29.80 "Hg4 mi
1:00 am82 °FPassing clouds.9 mph74%29.80 "Hg4 mi
12:30 am82 °FPassing clouds.6 mph74%29.80 "Hg4 mi
12:00 am82 °FPassing clouds.6 mph74%29.83 "Hg4 mi
11:30 pm
Thu, Apr 27
82 °FPassing clouds.6 mph74%29.83 "Hg4 mi
11:00 pm84 °FPassing clouds.6 mph74%29.83 "Hg4 mi
10:30 pm84 °FPassing clouds.6 mph74%29.83 "Hg4 mi
10:00 pm86 °FPassing clouds.3 mph70%29.83 "Hg4 mi
9:30 pm86 °FPassing clouds.5 mph70%29.83 "Hg4 mi
9:00 pm86 °FPassing clouds.5 mph70%29.83 "Hg4 mi
8:30 pm88 °FPassing clouds.9 mph66%29.80 "Hg4 mi
8:00 pm88 °FPassing clouds.8 mph66%29.77 "Hg4 mi
7:30 pm90 °FPassing clouds.12 mph55%29.77 "Hg4 mi
7:00 pm90 °FPassing clouds.9 mph55%29.74 "Hg4 mi
6:30 pm93 °FPassing clouds.6 mph56%29.71 "Hg4 mi
6:00 pm93 °FPassing clouds.6 mph56%29.74 "Hg4 mi
5:30 pm95 °FPassing clouds.2 mph47%29.71 "Hg5 mi
5:00 pm95 °FPassing clouds.7 mph47%29.71 "Hg5 mi
4:30 pm97 °FPassing clouds.9 mph47%29.71 "Hg5 mi
4:00 pm97 °FScattered clouds.5 mph47%29.71 "Hg5 mi
3:30 pm97 °FScattered clouds.3 mph47%29.74 "Hg5 mi
3:00 pm97 °FScattered clouds.3 mph47%29.74 "Hg5 mi
2:30 pm97 °FScattered clouds.3 mph47%29.74 "Hg5 mi
2:00 pm95 °FScattered clouds.3 mph39%29.77 "Hg5 mi
1:30 pm95 °FScattered clouds.7 mph39%29.77 "Hg5 mi
1:00 pm95 °FScattered clouds.8 mph39%29.80 "Hg5 mi
12:30 pm95 °FScattered clouds.7 mph39%29.80 "Hg5 mi
12:00 pm95 °FScattered clouds.3 mph39%29.83 "Hg5 mi
11:30 am93 °FScattered clouds.6 mph44%29.83 "Hg5 mi
11:00 am90 °FScattered clouds.6 mph63%29.86 "Hg5 mi
10:00 am88 °FScattered clouds.7 mph66%29.86 "Hg5 mi
9:00 am86 °FScattered clouds.7 mph75%29.89 "Hg5 mi
8:00 am82 °FPassing clouds.8 mph84%29.86 "Hg4 mi
7:30 am82 °FPassing clouds.7 mph84%29.86 "Hg4 mi
7:00 am81 °FPassing clouds.6 mph84%29.83 "Hg4 mi
Weather by CustomWeather, © 2017

See weather overviewHow to use our weather pages